This is the latest recevied weather packets stored in our database for station/object KD2SIG. If no packets are shown the sender has not sent any weather packets the latest 10 day(s).
| Time | Temp. | Humidity | Pressure | Rain* | Wind** | Luminosity | Snow |
|---|---|---|---|---|---|---|---|
| 1778008279 | 18.89° C | 72% | 1004.7 hPa | 0 mm | - | 771 W/m² | - |
| 1778007975 | 18.33° C | 74% | 1004.6 hPa | 0 mm | - | 382 W/m² | - |
| 1778007670 | 17.78° C | 74% | 1004.7 hPa | 0 mm | - | 624 W/m² | - |
| 1778007367 | 17.78° C | 75% | 1004.9 hPa | 0 mm | - | 384 W/m² | - |
| 1778007063 | 17.78° C | 76% | 1004.5 hPa | 0 mm | - | 281 W/m² | - |
| 1778006760 | 17.78° C | 76% | 1004.7 hPa | 0 mm | - | 412 W/m² | - |
| 1778006457 | 17.78° C | 76% | 1004.4 hPa | 0 mm | - | 374 W/m² | - |
| 1778006154 | 17.78° C | 78% | 1004.4 hPa | 0 mm | - | 692 W/m² | - |
| 1778005851 | 17.78° C | 78% | 1004.5 hPa | 0 mm | - | 231 W/m² | - |
| 1778005547 | 17.22° C | 79% | 1004.6 hPa | 0 mm | - | 354 W/m² | - |
| 1778005244 | 17.22° C | 80% | 1004.6 hPa | 0 mm | - | 677 W/m² | - |
| 1778004941 | 16.67° C | 82% | 1004.5 hPa | 0 mm | - | 629 W/m² | - |
| 1778004638 | 16.11° C | 84% | 1004.5 hPa | 0 mm | - | 635 W/m² | - |
| 1778004334 | 15.56° C | 85% | 1004.4 hPa | 0 mm | - | 618 W/m² | - |
| 1778004033 | 15° C | 87% | 1004.7 hPa | 0 mm | - | 872 W/m² | - |
| 1778003732 | 15° C | 88% | 1004.5 hPa | 0 mm | - | 262 W/m² | - |
| 1778003430 | 14.44° C | 89% | 1004.6 hPa | 0 mm | - | 292 W/m² | - |
| 1778003127 | 14.44° C | 88% | 1004.7 hPa | 0 mm | - | 99 W/m² | - |
| 1778002822 | 13.89° C | 88% | 1004.5 hPa | 0 mm | - | 138 W/m² | - |
| 1778002519 | 14.44° C | 87% | 1004.6 hPa | 0 mm | - | 164 W/m² | - |
| 1778002216 | 14.44° C | 86% | 1004.3 hPa | 0 mm | - | 242 W/m² | - |
| 1778001914 | 14.44° C | 87% | 1004.5 hPa | 1.27 mm | - | 537 W/m² | - |
| 1778001609 | 14.44° C | 86% | 1004.4 hPa | 3.05 mm | - | 297 W/m² | - |
| 1778001305 | 14.44° C | 87% | 1004.7 hPa | 4.83 mm | - | 81 W/m² | - |
| 1778001002 | 14.44° C | 88% | 1004.7 hPa | 6.1 mm | - | 42 W/m² | - |
* Rain latest hour (hover to see other rain measurements)
** Current wind speed in m/s (hover to see current wind gust speed)